TIME,�g�[�{�C���[-���� [L],�t���O,�����{�C���[-���� [L],�t���O,�g�[�{�C���[-���� [MJ/h],�t���O,�����{�C���[-���� [MJ/h],�t���O
2005/3/1 0:00,0.159550954,0,0,0,23.42208,0,0,0
2005/3/1 0:15,0.040572016,0,0.065044005,0,5.955972,0,9.54846,0
2005/3/1 0:30,0.102718038,0,0.021735041,0,15.079008,0,3.190704,0
2005/3/1 0:45,0.126706921,0,0,0,18.600576,0,0,0
2005/3/1 1:00,0.086617929,0,0,0,12.715512,0,0,0
2005/3/1 1:15,0.127351063,0,0,0,18.695136,0,0,0
2005/3/1 1:30,0.127673052,0,0,0,18.742404,0,0,0
2005/3/1 1:45,0.127351063,0,0,0,18.695136,0,0,0
2005/3/1 2:00,0.127512098,0,0,0,18.718776,0,0,0
2005/3/1 2:15,0.127351063,0,0,0,18.695136,0,0,0
2005/3/1 2:30,0.127512098,0,0,0,18.718776,0,0,0
2005/3/1 2:45,0.114792997,0,0,0,16.851612,0,0,0
2005/3/1 3:00,0.095473079,0,0,0,14.015448,0,0,0
2005/3/1 3:15,0.127673052,0,0,0,18.742404,0,0,0
2005/3/1 3:30,0.127673052,0,0,0,18.742404,0,0,0
2005/3/1 3:45,0.127673052,0,0,0,18.742404,0,0,0
2005/3/1 4:00,0.127834005,0,0,0,18.766032,0,0,0
2005/3/1 4:15,0.127673052,0,0,0,18.742404,0,0,0
2005/3/1 4:30,0.127834005,0,0,0,18.766032,0,0,0
2005/3/1 4:45,0.127834005,0,0,0,18.766032,0,0,0
2005/3/1 5:00,0.127994959,0,0,0,18.78966,0,0,0
2005/3/1 5:15,0.127834005,0,0,0,18.766032,0,0,0
2005/3/1 5:30,0.127994959,0,0,0,18.78966,0,0,0
2005/3/1 5:45,0.127994959,0,0,0,18.78966,0,0,0
2005/3/1 6:00,0.127994959,0,0,0,18.78966,0,0,0
2005/3/1 6:15,0.127994959,0,0,0,18.78966,0,0,0
2005/3/1 6:30,0.127673052,0,0,0,18.742404,0,0,0
2005/3/1 6:45,0.127834005,0,0,0,18.766032,0,0,0
2005/3/1 7:00,0.127673052,0,0.005473978,0,18.742404,0,0.80358,0
2005/3/1 7:15,0.127512098,0,0.176938937,0,18.718776,0,25.974636,0
2005/3/1 7:30,0.127512098,0,0.015455967,0,18.718776,0,2.268936,0
2005/3/1 7:45,0.170016049,0,0,0,24.958356,0,0,0
2005/3/1 8:00,0.127511935,0,0.011270027,0,18.718752,0,1.65444,0
2005/3/1 8:15,0.151339946,0,0.09450703,0,22.216704,0,13.873632,0
2005/3/1 8:30,0.126706921,0,0.058121035,0,18.600576,0,8.532168,0
2005/3/1 8:45,0.127028992,0,0,0,18.647856,0,0,0
2005/3/1 9:00,0.06488297,0,0.005473978,0,9.52482,0,0.80358,0
2005/3/1 9:15,0.074704005,0,0.013362997,0,10.966548,0,1.961688,0
2005/3/1 9:30,0.068747003,0,0,0,10.09206,0,0,0
2005/3/1 9:45,0.069068992,0,0,0,10.139328,0,0,0
2005/3/1 10:00,0.068425014,0,0.009981989,0,10.044792,0,1.465356,0
2005/3/1 10:15,0.108514005,0,0,0,15.929856,0,0,0
2005/3/1 10:30,0.127028992,0,0,0,18.647856,0,0,0
2005/3/1 10:45,0.126706921,0,0,0,18.600576,0,0,0
2005/3/1 11:00,0.126706921,0,0.122037956,0,18.600576,0,17.915172,0
2005/3/1 11:15,0.126867956,0,0.062628965,0,18.624216,0,9.193932,0
2005/3/1 11:30,0.126545886,0,0,0,18.576936,0,0,0
2005/3/1 11:45,0.080660926,0,0,0,11.841024,0,0,0
2005/3/1 12:00,0.112377956,0,0,0,16.497084,0,0,0
2005/3/1 12:15,0.103684005,0,0,0,15.220812,0,0,0
2005/3/1 12:30,0.066814986,0,0,0,9.80844,0,0,0
2005/3/1 12:45,0.092253025,0,0,0,13.542744,0,0,0
2005/3/1 13:00,0.074704005,0,0.025921063,0,10.966548,0,3.805212,0
2005/3/1 13:15,0.103362098,0,0,0,15.173556,0,0,0
2005/3/1 13:30,0.100947057,0,0,0,14.819028,0,0,0
2005/3/1 13:45,0.089355041,0,0,0,13.11732,0,0,0
2005/3/1 14:00,0.100463951,0,0,0,14.748108,0,0,0
2005/3/1 14:15,0.090642997,0,0,0,13.306392,0,0,0
2005/3/1 14:30,0.104488937,0,0,0,15.338976,0,0,0
2005/3/1 14:45,0.11382703,0,0,0,16.709808,0,0,0
2005/3/1 15:00,0.099981008,0,0,0,14.677212,0,0,0
2005/3/1 15:15,0.11865703,0,0,0,17.418852,0,0,0
2005/3/1 15:30,0.102557003,0,0.015938992,0,15.055368,0,2.339844,0
2005/3/1 15:45,0.109479973,0,0,0,16.07166,0,0,0
2005/3/1 16:00,0.127028992,0,0,0,18.647856,0,0,0
2005/3/1 16:15,0.126867956,0,0,0,18.624216,0,0,0
2005/3/1 16:30,0.126867956,0,0,0,18.624216,0,0,0
2005/3/1 16:45,0.126545886,0,0,0,18.576936,0,0,0
2005/3/1 17:00,0.126867956,0,0,0,18.624216,0,0,0
2005/3/1 17:15,0.127028992,0,0.028174986,0,18.647856,0,4.136088,0
2005/3/1 17:30,0.126867956,0,0.015295014,0,18.624216,0,2.245308,0
2005/3/1 17:45,0.126545886,0,0,0,18.576936,0,0,0
2005/3/1 18:00,0.126385014,0,0,0,18.55332,0,0,0
2005/3/1 18:15,0.126867956,0,0.078890027,0,18.624216,0,11.581056,0
2005/3/1 18:30,0.126706921,0,0.02688703,0,18.600576,0,3.947016,0
2005/3/1 18:45,0.126867956,0,0.016100027,0,18.624216,0,2.363484,0
2005/3/1 19:00,0.126867956,0,0.794696076,0,18.624216,0,116.661384,0
2005/3/1 19:15,0.126706921,0,0.410228011,0,18.600576,0,60.221472,0
2005/3/1 19:30,0.126867956,0,0.143129019,0,18.624216,0,21.01134,0
2005/3/1 19:45,0.126867956,0,0.080821962,0,18.624216,0,11.864664,0
2005/3/1 20:00,0.127028992,0,0.021413052,0,18.647856,0,3.143436,0
2005/3/1 20:15,0.126867956,0,0.080821962,0,18.624216,0,11.864664,0
2005/3/1 20:30,0.127028992,0,0.022218065,0,18.647856,0,3.261612,0
2005/3/1 20:45,0.126867956,0,0,0,18.624216,0,0,0
2005/3/1 21:00,0.127190027,0,0.04347,0,18.671496,0,6.381396,0
2005/3/1 21:15,0.127351063,0,0,0,18.695136,0,0,0
2005/3/1 21:30,0.127512098,0,0,0,18.718776,0,0,0
2005/3/1 21:45,0.127512016,0,0.07035703,0,18.718764,0,10.328412,0
2005/3/1 22:00,0.099819973,0,0,0,14.653572,0,0,0
2005/3/1 22:15,0.094024005,0,0.021090981,0,13.802724,0,3.096156,0
2005/3/1 22:30,0.10078594,0,0.028980082,0,14.795376,0,4.254276,0
2005/3/1 22:45,0.10416703,0,0,0,15.29172,0,0,0
2005/3/1 23:00,0.127512098,0,0.039445014,0,18.718776,0,5.790528,0
2005/3/1 23:15,0.107387003,0,0.009016022,0,15.764412,0,1.323552,0
2005/3/1 23:30,0.12284297,0,0.057316022,0,18.033348,0,8.413992,0
2005/3/1 23:45,0.11382703,0,0.28770703,0,16.709808,0,42.235392,0
2005/3/2 0:00,0.121877084,0,0.043631035,0,17.891556,0,6.405036,0
2005/3/2 0:15,0.119140054,0,0,0,17.48976,0,0,0
2005/3/2 0:30,0.113022016,0,0.020768992,0,16.591632,0,3.048888,0
2005/3/2 0:45,0.127512016,0,0,0,18.718764,0,0,0
2005/3/2 1:00,0.127512098,0,0,0,18.718776,0,0,0
2005/3/2 1:15,0.127512098,0,0,0,18.718776,0,0,0
2005/3/2 1:30,0.127512098,0,0,0,18.718776,0,0,0
2005/3/2 1:45,0.127673052,0,0,0,18.742404,0,0,0
2005/3/2 2:00,0.127512098,0,0,0,18.718776,0,0,0
2005/3/2 2:15,0.127673052,0,0,0,18.742404,0,0,0
2005/3/2 2:30,0.127512098,0,0,0,18.718776,0,0,0
2005/3/2 2:45,0.127673052,0,0,0,18.742404,0,0,0
2005/3/2 3:00,0.127673052,0,0,0,18.742404,0,0,0
2005/3/2 3:15,0.127512098,0,0,0,18.718776,0,0,0
2005/3/2 3:30,0.127673052,0,0,0,18.742404,0,0,0
2005/3/2 3:45,0.127673052,0,0,0,18.742404,0,0,0
2005/3/2 4:00,0.127673052,0,0,0,18.742404,0,0,0
2005/3/2 4:15,0.127512098,0,0,0,18.718776,0,0,0
2005/3/2 4:30,0.127673052,0,0,0,18.742404,0,0,0
2005/3/2 4:45,0.127512098,0,0,0,18.718776,0,0,0
2005/3/2 5:00,0.127673052,0,0,0,18.742404,0,0,0
2005/3/2 5:15,0.127673052,0,0,0,18.742404,0,0,0
2005/3/2 5:30,0.127673052,0,0,0,18.742404,0,0,0
2005/3/2 5:45,0.127673052,0,0,0,18.742404,0,0,0
2005/3/2 6:00,0.127834005,0,0,0,18.766032,0,0,0
2005/3/2 6:15,0.127673052,0,0,0,18.742404,0,0,0
2005/3/2 6:30,0.127673052,0,0,0,18.742404,0,0,0
2005/3/2 6:45,0.127512098,0,0,0,18.718776,0,0,0
2005/3/2 7:00,0.127512098,0,0,0,18.718776,0,0,0
2005/3/2 7:15,0.127351063,0,0.194004932,0,18.695136,0,28.479924,0
2005/3/2 7:30,0.117047003,0,0.01996406,0,17.1825,0,2.930724,0
2005/3/2 7:45,0.147958937,0,0,0,21.720372,0,0,0
2005/3/2 8:00,0.126867956,0,0.018514986,0,18.624216,0,2.718,0
2005/3/2 8:15,0.127028992,0,0.00483,0,18.647856,0,0.709044,0
2005/3/2 8:30,0.127190027,0,0,0,18.671496,0,0,0
2005/3/2 8:45,0.127028992,0,0,0,18.647856,0,0,0
2005/3/2 9:00,0.127190027,0,0.118495995,0,18.671496,0,17.395212,0
2005/3/2 9:15,0.127028992,0,0.053291035,0,18.647856,0,7.823124,0
2005/3/2 9:30,0.127028992,0,0.018514986,0,18.647856,0,2.718,0
2005/3/2 9:45,0.127028992,0,0,0,18.647856,0,0,0
2005/3/2 10:00,0.126867956,0,0.064078038,0,18.624216,0,9.406656,0
2005/3/2 10:15,0.096438965,0,0,0,14.15724,0,0,0
2005/3/2 10:30,0.112699946,0,0,0,16.544352,0,0,0
2005/3/2 10:45,0.089033052,0,0,0,13.070052,0,0,0
2005/3/2 11:00,0.079050899,0,0,0,11.604672,0,0,0
2005/3/2 11:15,0.102073978,0,0,0,14.98446,0,0,0
2005/3/2 11:30,0.112217003,0,0,0,16.473456,0,0,0
2005/3/2 11:45,0.085490926,0,0,0,12.550068,0,0,0
2005/3/2 12:00,0.088067003,0,0,0,12.928236,0,0,0
2005/3/2 12:15,0.101751989,0,0.015777956,0,14.937192,0,2.316204,0
2005/3/2 12:30,0.101751989,0,0,0,14.937192,0,0,0
2005/3/2 12:45,0.112538992,0,0,0,16.520724,0,0,0
2005/3/2 13:00,0.073093978,0,0,0,10.730196,0,0,0
2005/3/2 13:15,0.06971297,0,0,0,10.233864,0,0,0
2005/3/2 13:30,0.097565967,0,0.005957003,0,14.322684,0,0.874488,0
2005/3/2 13:45,0.086135068,0,0,0,12.644628,0,0,0
2005/3/2 14:00,0.105777057,0,0,0,15.528072,0,0,0
2005/3/2 14:15,0.058443025,0,0,0,8.579436,0,0,0
2005/3/2 14:30,0.11865703,0,0,0,17.418852,0,0,0
2005/3/2 14:45,0.096921989,0,0,0,14.228148,0,0,0
2005/3/2 15:00,0.087906049,0,0,0,12.904608,0,0,0
2005/3/2 15:15,0.085490926,0,0,0,12.550068,0,0,0
2005/3/2 15:30,0.114309891,0,0.016099946,0,16.780692,0,2.363472,0
2005/3/2 15:45,0.097243978,0,0,0,14.275416,0,0,0
2005/3/2 16:00,0.102556921,0,0,0,15.055356,0,0,0
2005/3/2 16:15,0.110929046,0,0,0,16.284384,0,0,0
2005/3/2 16:30,0.110446022,0,0.029301989,0,16.213476,0,4.301532,0
2005/3/2 16:45,0.11173406,0,0.00483,0,16.40256,0,0.709044,0
2005/3/2 17:00,0.127028992,0,0.022701008,0,18.647856,0,3.332508,0
2005/3/2 17:15,0.127028992,0,0,0,18.647856,0,0,0
2005/3/2 17:30,0.113022016,0,0,0,16.591632,0,0,0
2005/3/2 17:45,0.126867956,0,0,0,18.624216,0,0,0
2005/3/2 18:00,0.126867956,0,0,0,18.624216,0,0,0
2005/3/2 18:15,0.126867956,0,0.023667057,0,18.624216,0,3.474324,0
2005/3/2 18:30,0.126867956,0,0,0,18.624216,0,0,0
2005/3/2 18:45,0.126706921,0,0.028174986,0,18.600576,0,4.136088,0
2005/3/2 19:00,0.126384932,0,0.094024005,0,18.553308,0,13.802724,0
2005/3/2 19:15,0.126384932,0,0,0,18.553308,0,0,0
2005/3/2 19:30,0.126384932,0,0.033648965,0,18.553308,0,4.939668,0
2005/3/2 19:45,0.126545886,0,1.139397057,0,18.576936,0,167.263488,0
2005/3/2 20:00,0.126706921,0,0.156009074,0,18.600576,0,22.902132,0
2005/3/2 20:15,0.126867956,0,0.065205123,0,18.624216,0,9.572112,0
2005/3/2 20:30,0.127028992,0,0.065205123,0,18.647856,0,9.572112,0
2005/3/2 20:45,0.127190027,0,0.021735041,0,18.671496,0,3.190704,0
2005/3/2 21:00,0.127190027,0,0,0,18.671496,0,0,0
2005/3/2 21:15,0.127190027,0,0.197708011,0,18.671496,0,29.023536,0
2005/3/2 21:30,0.127190027,0,0.115759046,0,18.671496,0,16.993428,0
2005/3/2 21:45,0.127190027,0,0.300587003,0,18.671496,0,44.126172,0
2005/3/2 22:00,0.127512098,0,0.036225041,0,18.718776,0,5.317836,0
2005/3/2 22:15,0.127351063,0,0.043631035,0,18.695136,0,6.405036,0
2005/3/2 22:30,0.127512098,0,0,0,18.718776,0,0,0
2005/3/2 22:45,0.127512098,0,0.021574005,0,18.718776,0,3.167064,0
2005/3/2 23:00,0.127673052,0,0.087423025,0,18.742404,0,12.8337,0
2005/3/2 23:15,0.127512098,0,0,0,18.718776,0,0,0
2005/3/2 23:30,0.127512098,0,0,0,18.718776,0,0,0
2005/3/2 23:45,0.127512098,0,0,0,18.718776,0,0,0
2005/3/3 0:00,0.127673052,0,0,0,18.742404,0,0,0
2005/3/3 0:15,0.127673052,0,0,0,18.742404,0,0,0
2005/3/3 0:30,0.127673052,0,0,0,18.742404,0,0,0
2005/3/3 0:45,0.127673052,0,0,0,18.742404,0,0,0
2005/3/3 1:00,0.127673052,0,0,0,18.742404,0,0,0
2005/3/3 1:15,0.127834005,0,0,0,18.766032,0,0,0
2005/3/3 1:30,0.127834005,0,0,0,18.766032,0,0,0
2005/3/3 1:45,0.127834005,0,0,0,18.766032,0,0,0
2005/3/3 2:00,0.127834005,0,0,0,18.766032,0,0,0
2005/3/3 2:15,0.127673052,0,0,0,18.742404,0,0,0
2005/3/3 2:30,0.127834005,0,0.006600981,0,18.766032,0,0.969024,0
2005/3/3 2:45,0.127673052,0,0,0,18.742404,0,0,0
2005/3/3 3:00,0.127673052,0,0,0,18.742404,0,0,0
2005/3/3 3:15,0.127673052,0,0,0,18.742404,0,0,0
2005/3/3 3:30,0.127512098,0,0,0,18.718776,0,0,0
2005/3/3 3:45,0.127673052,0,0,0,18.742404,0,0,0
2005/3/3 4:00,0.127512098,0,0.006118038,0,18.718776,0,0.898128,0
2005/3/3 4:15,0.127673052,0,1.61E-04,0,18.742404,0,0.02364,0
2005/3/3 4:30,0.127512098,0,0,0,18.718776,0,0,0
2005/3/3 4:45,0.127351063,0,0,0,18.695136,0,0,0
2005/3/3 5:00,0.127190027,0,0.016100027,0,18.671496,0,2.363484,0
2005/3/3 5:15,0.127190027,0,0,0,18.671496,0,0,0
2005/3/3 5:30,0.127190027,0,0,0,18.671496,0,0,0
2005/3/3 5:45,0.127190027,0,0,0,18.671496,0,0,0
2005/3/3 6:00,0.127190027,0,0,0,18.671496,0,0,0
2005/3/3 6:15,0.142968065,0,0,0,20.987712,0,0,0
2005/3/3 6:30,0.213486049,0,0.005795967,0,31.339752,0,0.850848,0
2005/3/3 6:45,0.196259019,0,0,0,28.810824,0,0,0
2005/3/3 7:00,0.198513025,0,0.130731989,0,29.141712,0,19.191456,0
2005/3/3 7:15,0.198351989,0,0,0,29.118072,0,0,0
2005/3/3 7:30,0.173396975,0,0.048138965,0,25.454676,0,7.0668,0
2005/3/3 7:45,0.17388,0,0,0,25.525584,0,0,0
2005/3/3 8:00,0.138942916,0,0.080499973,0,20.39682,0,11.817396,0
2005/3/3 8:15,0.065365995,0,0.043148011,0,9.595728,0,6.334128,0
2005/3/3 8:30,0.073898992,0,0,0,10.848372,0,0,0
2005/3/3 8:45,0.068102943,0,0.030268038,0,9.997512,0,4.443348,0
2005/3/3 9:00,0.080177984,0,0,0,11.770128,0,0,0
2005/3/3 9:15,0.071644986,0,0,0,10.517484,0,0,0
2005/3/3 9:30,0.073899074,0,0,0,10.848384,0,0,0
2005/3/3 9:45,0.07728,0,0,0,11.344704,0,0,0
2005/3/3 10:00,0.080339019,0,0,0,11.793768,0,0,0
2005/3/3 10:15,0.083237003,0,0,0,12.219192,0,0,0
2005/3/3 10:30,0.078567956,0,0,0,11.533776,0,0,0
2005/3/3 10:45,0.066492916,0,0,0,9.76116,0,0,0
2005/3/3 11:00,0.090481962,0,0,0,13.282752,0,0,0
2005/3/3 11:15,0.065687984,0,0.011914005,0,9.642996,0,1.748976,0
2005/3/3 11:30,0.064722016,0,0,0,9.501192,0,0,0
2005/3/3 11:45,0.135401035,0,0,0,19.876872,0,0,0
2005/3/3 12:00,0.125901989,0,0,0,18.482412,0,0,0
2005/3/3 12:15,0.126223978,0,0,0,18.52968,0,0,0
2005/3/3 12:30,0.126384932,0,0.005795967,0,18.553308,0,0.850848,0
2005/3/3 12:45,0.126384932,0,0.010948038,0,18.553308,0,1.607172,0
2005/3/3 13:00,0.126384932,0,0.041055041,0,18.553308,0,6.02688,0
2005/3/3 13:15,0.073093978,0,0.005473978,0,10.730196,0,0.80358,0
2005/3/3 13:30,0.119461962,0,0.029301989,0,17.537016,0,4.301532,0
2005/3/3 13:45,0.07245,0,0,0,10.63566,0,0,0
2005/3/3 14:00,0.065366076,0,0,0,9.59574,0,0,0
2005/3/3 14:15,0.126707003,0,0,0,18.600588,0,0,0
2005/3/3 14:30,0.06552703,0,0,0,9.619368,0,0,0
2005/3/3 14:45,0.126223978,0,0,0,18.52968,0,0,0
2005/3/3 15:00,0.126063025,0,0,0,18.506052,0,0,0
2005/3/3 15:15,0.126063025,0,0,0,18.506052,0,0,0
2005/3/3 15:30,0.125901989,0,0,0,18.482412,0,0,0
2005/3/3 15:45,0.126063025,0,0,0,18.506052,0,0,0
2005/3/3 16:00,0.106581989,0,0.455790981,0,15.646236,0,66.910116,0
2005/3/3 16:15,0.126063025,0,0.049910027,0,18.506052,0,7.326792,0
2005/3/3 16:30,0.125901989,0,0.000483025,0,18.482412,0,0.070908,0
2005/3/3 16:45,0.125901989,0,0,0,18.482412,0,0,0
2005/3/3 17:00,0.125901989,0,0,0,18.482412,0,0,0
2005/3/3 17:15,0.125740954,0,0,0,18.458772,0,0,0
2005/3/3 17:30,0.112217003,0,0,0,16.473456,0,0,0
2005/3/3 17:45,0.126223978,0,0.005473978,0,18.52968,0,0.80358,0
2005/3/3 18:00,0.126545886,0,0.02898,0,18.576936,0,4.254264,0
2005/3/3 18:15,0.126706921,0,0,0,18.600576,0,0,0
2005/3/3 18:30,0.126545967,0,0.019641989,0,18.576948,0,2.883444,0
2005/3/3 18:45,0.126545886,0,0.034132071,0,18.576936,0,5.010588,0
2005/3/3 19:00,0.126063025,0,0.113505041,0,18.506052,0,16.66254,0
2005/3/3 19:15,0.126223978,0,0,0,18.52968,0,0,0
2005/3/3 19:30,0.126223978,0,0.127351063,0,18.52968,0,18.695136,0
2005/3/3 19:45,0.126223978,0,0.440978992,0,18.52968,0,64.735716,0
2005/3/3 20:00,0.126223978,0,0.80596594,0,18.52968,0,118.3158,0
2005/3/3 20:15,0.126384932,0,0.056994033,0,18.553308,0,8.366724,0
2005/3/3 20:30,0.126706921,0,0.051519973,0,18.600576,0,7.563132,0
2005/3/3 20:45,0.126706921,0,0,0,18.600576,0,0,0
2005/3/3 21:00,0.126867956,0,0.076636022,0,18.624216,0,11.250168,0
2005/3/3 21:15,0.126545886,0,0.065205123,0,18.576936,0,9.572112,0
2005/3/3 21:30,0.126867956,0,0.546272943,0,18.624216,0,80.192868,0
2005/3/3 21:45,0.126706921,0,0.000483025,0,18.600576,0,0.070908,0
2005/3/3 22:00,0.126706921,0,0.04894406,0,18.600576,0,7.184988,0
2005/3/3 22:15,0.126706921,0,0.012075041,0,18.600576,0,1.772616,0
2005/3/3 22:30,0.126545886,0,0,0,18.576936,0,0,0
2005/3/3 22:45,0.126867956,0,0.043309046,0,18.624216,0,6.357768,0
2005/3/3 23:00,0.126545886,0,0,0,18.576936,0,0,0
2005/3/3 23:15,0.126706921,0,0.027209019,0,18.600576,0,3.994284,0
2005/3/3 23:30,0.126706921,0,0.021895995,0,18.600576,0,3.214332,0
2005/3/3 23:45,0.126545886,0,0,0,18.576936,0,0,0
2005/3/4 0:00,0.126706921,0,0.043308965,0,18.600576,0,6.357756,0
2005/3/4 0:15,0.126545886,0,0,0,18.576936,0,0,0
2005/3/4 0:30,0.126545886,0,0,0,18.576936,0,0,0
2005/3/4 0:45,0.126706921,0,0.065365995,0,18.600576,0,9.595728,0
2005/3/4 1:00,0.126545886,0,0.021735041,0,18.576936,0,3.190704,0
2005/3/4 1:15,0.126706921,0,0,0,18.600576,0,0,0
2005/3/4 1:30,0.126706921,0,0.043309046,0,18.600576,0,6.357768,0
2005/3/4 1:45,0.126706921,0,0,0,18.600576,0,0,0
2005/3/4 2:00,0.126545886,0,0,0,18.576936,0,0,0
2005/3/4 2:15,0.126706921,0,0.04347,0,18.600576,0,6.381396,0
2005/3/4 2:30,0.126545886,0,0,0,18.576936,0,0,0
2005/3/4 2:45,0.126545886,0,0,0,18.576936,0,0,0
2005/3/4 3:00,0.126706921,0,0,0,18.600576,0,0,0
2005/3/4 3:15,0.126706921,0,0,0,18.600576,0,0,0
2005/3/4 3:30,0.126706921,0,0,0,18.600576,0,0,0
2005/3/4 3:45,0.126706921,0,0,0,18.600576,0,0,0
2005/3/4 4:00,0.126867956,0,0,0,18.624216,0,0,0
2005/3/4 4:15,0.126867956,0,0,0,18.624216,0,0,0
2005/3/4 4:30,0.127028992,0,0,0,18.647856,0,0,0
2005/3/4 4:45,0.126867956,0,0,0,18.624216,0,0,0
2005/3/4 5:00,0.126706921,0,0,0,18.600576,0,0,0
2005/3/4 5:15,0.127028992,0,0,0,18.647856,0,0,0
2005/3/4 5:30,0.126867956,0,0,0,18.624216,0,0,0
2005/3/4 5:45,0.127028992,0,0,0,18.647856,0,0,0
2005/3/4 6:00,0.126867956,0,0,0,18.624216,0,0,0
2005/3/4 6:15,0.127028992,0,0,0,18.647856,0,0,0
2005/3/4 6:30,0.127028992,0,0.012719019,0,18.647856,0,1.867152,0
2005/3/4 6:45,0.145543978,0,0.168406022,0,21.365856,0,24.722004,0
2005/3/4 7:00,0.126545886,0,0.00692297,0,18.576936,0,1.016292,0
2005/3/4 7:15,0.126867956,0,0.009981989,0,18.624216,0,1.465356,0
2005/3/4 7:30,0.127028992,0,0.028336022,0,18.647856,0,4.159728,0
2005/3/4 7:45,0.198351989,0,1.61E-04,0,29.118072,0,0.02364,0
2005/3/4 8:00,0.106581989,0,0,0,15.646236,0,0,0
2005/3/4 8:15,0.126706921,0,0,0,18.600576,0,0,0
2005/3/4 8:30,0.126867956,0,0.080822044,0,18.624216,0,11.864676,0
2005/3/4 8:45,0.126867956,0,0.024471989,0,18.624216,0,3.592488,0
2005/3/4 9:00,0.127028992,0,0,0,18.647856,0,0,0
2005/3/4 9:15,0.127028992,0,0,0,18.647856,0,0,0
2005/3/4 9:30,0.126867956,0,0,0,18.624216,0,0,0
2005/3/4 9:45,0.127028992,0,0,0,18.647856,0,0,0
2005/3/4 10:00,0.126867956,0,0,0,18.624216,0,0,0
2005/3/4 10:15,0.126867956,0,0,0,18.624216,0,0,0
2005/3/4 10:30,0.126867956,0,0.009821035,0,18.624216,0,1.441728,0
2005/3/4 10:45,0.126867956,0,0.005957003,0,18.624216,0,0.874488,0
2005/3/4 11:00,0.126706921,0,0,0,18.600576,0,0,0
2005/3/4 11:15,0.126867956,0,0.029463025,0,18.624216,0,4.325172,0
2005/3/4 11:30,0.127028992,0,0,0,18.647856,0,0,0
2005/3/4 11:45,0.126706921,0,0.043631035,0,18.600576,0,6.405036,0
2005/3/4 12:00,0.146027003,0,0.057638011,0,21.436764,0,8.46126,0
2005/3/4 12:15,0.126384932,0,0,0,18.553308,0,0,0
2005/3/4 12:30,0.126706921,0,0,0,18.600576,0,0,0
2005/3/4 12:45,0.126867956,0,0.02205703,0,18.624216,0,3.237972,0
2005/3/4 13:00,0.126867956,0,1.61E-04,0,18.624216,0,0.02364,0
2005/3/4 13:15,0.126706921,0,0,0,18.600576,0,0,0
2005/3/4 13:30,0.168244986,0,0,0,24.698364,0,0,0
2005/3/4 13:45,0.118817984,0,0.067137057,0,17.44248,0,9.85572,0
2005/3/4 14:00,0.153271962,0,0.005957003,0,22.500324,0,0.874488,0
2005/3/4 14:15,0.164702943,0,0,0,24.178392,0,0,0
2005/3/4 14:30,0.212841989,0,0,0,31.245204,0,0,0
2005/3/4 14:45,0.201571962,0,0,0,29.590764,0,0,0
2005/3/4 15:00,0.197868965,0,0,0,29.047164,0,0,0
2005/3/4 15:15,0.193682943,0,0.016100027,0,28.432656,0,2.363484,0
2005/3/4 15:30,0.192878011,0,0,0,28.314492,0,0,0
2005/3/4 15:45,0.195454005,0,0,0,28.692648,0,0,0
2005/3/4 16:00,0.193039046,0,0,0,28.338132,0,0,0
2005/3/4 16:15,0.16083891,0,0,0,23.611152,0,0,0
2005/3/4 16:30,0.126062943,0,0.016099946,0,18.50604,0,2.363472,0
2005/3/4 16:45,0.148281008,0,0,0,21.767652,0,0,0
2005/3/4 17:00,0.126223978,0,0.005795967,0,18.52968,0,0.850848,0
2005/3/4 17:15,0.126545967,0,0,0,18.576948,0,0,0
2005/3/4 17:30,0.126545886,0,0,0,18.576936,0,0,0
2005/3/4 17:45,0.126867956,0,0,0,18.624216,0,0,0
2005/3/4 18:00,0.126706921,0,0,0,18.600576,0,0,0
2005/3/4 18:15,0.157457984,0,0,0,23.114832,0,0,0
2005/3/4 18:30,0.157135995,0,0.272089946,0,23.067564,0,39.942804,0
2005/3/4 18:45,0.18080297,0,0.04347,0,26.541876,0,6.381396,0
2005/3/4 19:00,0.190301935,0,0.099820054,0,27.936324,0,14.653584,0
2005/3/4 19:15,0.185633052,0,0.082271035,0,27.250932,0,12.077388,0
2005/3/4 19:30,0.185955041,0,0.34840406,0,27.2982,0,51.145716,0
2005/3/4 19:45,0.186115995,0,0.366919046,0,27.321828,0,53.863716,0
2005/3/4 20:00,0.164542071,0,0.041055041,0,24.154776,0,6.02688,0
2005/3/4 20:15,0.162610054,0,1.216676975,0,23.871156,0,178.60818,0
2005/3/4 20:30,0.154721035,0,0.05168109,0,22.713048,0,7.586784,0
2005/3/4 20:45,0.139748011,0,0.031878065,0,20.515008,0,4.6797,0
2005/3/4 21:00,0.168406022,0,0,0,24.722004,0,0,0
2005/3/4 21:15,0.155365095,0,0.086779046,0,22.807596,0,12.739164,0
2005/3/4 21:30,0.179997956,0,0.101913025,0,26.4237,0,14.960832,0
2005/3/4 21:45,0.133468937,0,0.055706076,0,19.59324,0,8.177652,0
2005/3/4 22:00,0.15729703,0,0,0,23.091204,0,0,0
2005/3/4 22:15,0.153271962,0,0.027369973,0,22.500324,0,4.017912,0
2005/3/4 22:30,0.142806948,0,0.021735041,0,20.96406,0,3.190704,0
2005/3/4 22:45,0.152627984,0,0,0,22.405788,0,0,0
2005/3/4 23:00,0.164703025,0,0.043631035,0,24.178404,0,6.405036,0
2005/3/4 23:15,0.149247057,0,0.027209019,0,21.909468,0,3.994284,0
2005/3/4 23:30,0.13942594,0,0.194971063,0,20.467728,0,28.621752,0
2005/3/4 23:45,0.13733297,0,0.087745095,0,20.16048,0,12.88098,0
2005/3/5 0:00,0.126384932,0,0.000483025,0,18.553308,0,0.070908,0
2005/3/5 0:15,0.0966,0,0,0,14.18088,0,0,0
2005/3/5 0:30,0.102395967,0,0,0,15.031728,0,0,0
2005/3/5 0:45,0.098209946,0,0,0,14.41722,0,0,0
2005/3/5 1:00,0.103361935,0,0,0,15.173532,0,0,0
2005/3/5 1:15,0.103362016,0,0,0,15.173544,0,0,0
2005/3/5 1:30,0.109962997,0,0,0,16.142568,0,0,0
2005/3/5 1:45,0.101107929,0,0,0,14.842644,0,0,0
2005/3/5 2:00,0.126706921,0,0,0,18.600576,0,0,0
2005/3/5 2:15,0.102556921,0,0,0,15.055356,0,0,0
2005/3/5 2:30,0.109479973,0,0,0,16.07166,0,0,0
2005/3/5 2:45,0.110446022,0,0,0,16.213476,0,0,0
2005/3/5 3:00,0.126384932,0,0,0,18.553308,0,0,0
2005/3/5 3:15,0.106743025,0,0,0,15.669876,0,0,0
2005/3/5 3:30,0.102234932,0,0,0,15.008088,0,0,0
2005/3/5 3:45,0.126545886,0,0,0,18.576936,0,0,0
2005/3/5 4:00,0.101429918,0,0,0,14.889912,0,0,0
2005/3/5 4:15,0.123647984,0,0,0,18.151524,0,0,0
2005/3/5 4:30,0.11527594,0,0,0,16.922508,0,0,0
2005/3/5 4:45,0.126384932,0,0,0,18.553308,0,0,0
2005/3/5 5:00,0.126223978,0,0,0,18.52968,0,0,0
2005/3/5 5:15,0.100947057,0,0,0,14.819028,0,0,0
2005/3/5 5:30,0.110123951,0,0,0,16.166196,0,0,0
2005/3/5 5:45,0.126545886,0,0,0,18.576936,0,0,0
2005/3/5 6:00,0.102234932,0,0,0,15.008088,0,0,0
2005/3/5 6:15,0.126545886,0,0,0,18.576936,0,0,0
2005/3/5 6:30,0.113665995,0,0,0,16.686168,0,0,0
2005/3/5 6:45,0.131053978,0,0.020285967,0,19.238724,0,2.97798,0
2005/3/5 7:00,0.126545886,0,0,0,18.576936,0,0,0
2005/3/5 7:15,0.126384932,0,0,0,18.553308,0,0,0
2005/3/5 7:30,0.126545886,0,0,0,18.576936,0,0,0
2005/3/5 7:45,0.126384932,0,0.044113978,0,18.553308,0,6.475932,0
2005/3/5 8:00,0.14908594,0,0.197868965,0,21.885816,0,29.047164,0
2005/3/5 8:15,0.198995967,0,0,0,29.212608,0,0,0
2005/3/5 8:30,0.180159074,0,0,0,26.447352,0,0,0
2005/3/5 8:45,0.130731989,0,0,0,19.191456,0,0,0
2005/3/5 9:00,0.135883978,0,0,0,19.947768,0,0,0
2005/3/5 9:15,0.151984005,0,0.067781035,0,22.311252,0,9.950256,0
2005/3/5 9:30,0.108353052,0,0,0,15.906228,0,0,0
2005/3/5 9:45,0.125901989,0,0,0,18.482412,0,0,0
2005/3/5 10:00,0.126223978,0,0,0,18.52968,0,0,0
2005/3/5 10:15,0.126223978,0,0.009981989,0,18.52968,0,1.465356,0
2005/3/5 10:30,0.126223978,0,0.009177057,0,18.52968,0,1.347192,0
2005/3/5 10:45,0.101108011,0,0,0,14.842656,0,0,0
2005/3/5 11:00,0.079534005,0,0.20076703,0,11.675592,0,29.4726,0
2005/3/5 11:15,0.090321008,0,0.014651035,0,13.259124,0,2.150772,0